sat.trackr.live / text

‹ back to catalog

STARLINK-1402

NORAD 45685 · 2020-035AE

PAYLOAD ACTIVE UNKNOWN

§ Identity

Operator
Country
US
Launch date
2020-06-04
Launch site
AFETR
Launch vehicle
Mass (kg)
RCS (m²)

Purposes: comms

External: N2YO · Heavens-Above · Gunter

§ Orbital elements

Epoch: 2026-09-20T02:37:59.132352Z

Period
91.45 min
Inclination
53.0360°
Eccentricity
0.0004712
Mean motion
15.74545587 rev/d
Perigee alt
342.8 km
Apogee alt
349.1 km
Semi-major
6,724.1 km
B*
3.8816e-4
RAAN
155.5845°
Arg perigee
101.4595°
Mean anomaly
258.6952°
Rev number
34,970

§ Raw data

STARLINK-14021 45685U 20035AE  26263.10971218  .00057530  00000+0  38816-3 0  99942 45685  53.0360 155.5845 0004712 101.4595 258.6952 15.74545587349700

JSON: /api/v1/satellites/45685 · /tle

For live sub-satellite position, see the globe view (requires WebGL).

§ Visibility from observer

Set your observer location to see the next 7 days of passes ≥ 10°. The values pass through the URL so the page stays shareable.

No JS? Fill the form by hand. The geolocation button needs JavaScript.